Regional Weather Roundup
Issued by NWS

Home | Current Version | Previous Version | Text Only | Print | Product List | Glossary On
Versions: 1 2 3 4 5 6 7 8 9 10 11 12 13 14 15 16 17 18 19 20 21 22 23 24 25 26 27 28 29 30 31 32 33 34 35 36 37 38 39 40 41 42 43 44 45 46 47 48 49 50
000
ASUS44 KMEG 191210
RWRTN
TENNESSEE HOURLY STATE WEATHER ROUNDUP
NATIONAL WEATHER SERVICE MEMPHIS TN
700 AM CDT SAT AUG 19 2017

TNZ002-004-019-021-049-052-054-088>092-191300-
WEST TENNESSEE

CITY           SKY/WX    TMP DP  RH WIND       PRES   REMARKS
MEMPHIS INTL   PTCLDY    75  71  87 CALM      29.97R
NWS MEMPHIS      N/A     72 N/A N/A MISG        N/A
JACKSON        PTCLDY    68  67  96 CALM      29.98R
DYERSBURG      CLEAR     69  67  93 CALM      29.97S
SOMERVILLE     CLEAR     70  68  94 CALM      29.96R
COVINGTON      CLEAR     68  68 100 CALM      29.96S
UNION CITY     CLEAR     66  66 100 CALM      29.96R
BOLIVAR        CLEAR     68  66  94 CALM      29.97R
PARIS          CLEAR     68  66  94 CALM      29.97R
HUNTINGDON     CLEAR     68  66  94 CALM      29.97S
LEXINGTON        N/A     66  64  94 CALM      29.99R
SELMER         CLEAR     68  66  94 CALM      29.98R
SAVANNAH       CLEAR     68  66  94 S3        29.98R
$$

TNZ008-025-027-028-033-062-065-066-191300-
NORTH MIDDLE TENNESSEE

CITY           SKY/WX    TMP DP  RH WIND       PRES   REMARKS
NASHVILLE      PTCLDY    68  66  93 S5        30.01R
PORTLAND       PTCLDY    68  66  94 CALM      30.01R
CLARKSVILLE    MOCLDY    68  66  93 CALM      29.99R
SMYRNA         CLEAR     67  66  97 CALM      30.02R
COOKEVILLE     SUNNY     64  64 100 CALM      30.02S
GALLATIN       MOCLDY    68  66  94 CALM      30.04R
CROSSVILLE     MOSUNNY   62  61  96 CALM      30.08R
$$

TNZ061-075-076-078-094-096-097-191300-
SOUTH MIDDLE TENNESSEE

CITY           SKY/WX    TMP DP  RH WIND       PRES   REMARKS
FAYETTEVILLE   CLEAR     68  66  94 CALM      30.03R
TULLAHOMA      MOCLDY    64  64 100 CALM      30.04R VSB 1/2
WINCHESTER     CLEAR     66  64  94 CALM      30.03R
MCMINNVILLE    CLEAR     64  64 100 CALM      30.04R
COLUMBIA       CLEAR     68  68 100 CALM      30.00R FOG
SHELBYVILLE    CLEAR     64  64 100 CALM      30.02R
$$

TNZ017-018-042-046-047-191300-
NORTHEAST TENNESSEE

CITY           SKY/WX    TMP DP  RH WIND       PRES   REMARKS
TRI CITIES     FOG       66  66 100 CALM      30.06R VSB 3/4
ELIZABETHTON   MOSUNNY   64  63  94 CALM      30.07R
$$

TNZ012-013-036-069-073-074-191300-
CENTRAL EAST TENNESSEE

CITY           SKY/WX    TMP DP  RH WIND       PRES   REMARKS
KNOXVILLE      MOSUNNY   68  65  90 NW5       30.03R
OAK RIDGE      SUNNY     67  64  90 CALM      30.05R
DOWNTOWN KNOXV SUNNY     66  66 100 CALM      30.02R
GATLINBURG     SUNNY     64  64 100 CALM      30.03S
MORRISTOWN     SUNNY     66  66 100 CALM      30.04R
JACKSBORO      MOSUNNY   64  64 100 CALM      30.07R FOG
$$

TNZ083-085-099-191300-
SOUTHEAST TENNESSEE

CITY           SKY/WX    TMP DP  RH WIND       PRES   REMARKS
CHATTANOOGA    MOSUNNY   69  66  90 CALM      30.02R
DAYTON         FOG       66  66 100 CALM      30.02R VSB 0
$$

SKY/WX REPORTED AS FAIR MEANS FEW OR NO CLOUDS BELOW
12 THOUSAND FEET.





USA.gov is the U.S. government's official web portal to all federal, state and local government web resources and services.